EZS45GJ LFKB-LSGG

Flight info

Callsign EZS45GJ
Flight time 1h 5m
Altitude 30000
Route AKUTI UM616 PIGOS DCT BARSO DCT IRMAR DCT KINES
Aircraft A20N/M-SDE2E3FGHIJ1RWXYZ/LB1

Departure

Time 2026-04-26 12:10
Airport Bastia-Poretta International airport (LFKB)

Arrival

Time 2026-04-26 13:15
Airport Geneva International Airport (LSGG)
Time Latitude Longitude Altitude Speed Heading
2026-04-26 11:21 42.54726 9.48217 34 ft 0 kts 281°
2026-04-26 12:06 42.54734 9.48208 34 ft 3 kts 336°
2026-04-26 12:06 42.54760 9.48250 33 ft 10 kts 92°
2026-04-26 12:07 42.54731 9.48311 32 ft 12 kts 140°
2026-04-26 12:07 42.54625 9.48371 32 ft 12 kts 161°
2026-04-26 12:07 42.54534 9.48408 31 ft 14 kts 163°
2026-04-26 12:07 42.54435 9.48417 31 ft 14 kts 180°
2026-04-26 12:08 42.54334 9.48444 30 ft 15 kts 164°
2026-04-26 12:08 42.54230 9.48488 30 ft 16 kts 161°
2026-04-26 12:08 42.54145 9.48573 29 ft 15 kts 118°
2026-04-26 12:08 42.54139 9.48695 29 ft 10 kts 73°
2026-04-26 12:09 42.54176 9.48785 27 ft 12 kts 53°
2026-04-26 12:09 42.54260 9.48795 26 ft 14 kts 342°
2026-04-26 12:09 42.54358 9.48755 26 ft 38 kts 343°
2026-04-26 12:09 42.55116 9.48441 26 ft 127 kts 342°
2026-04-26 12:10 42.56119 9.48028 80 ft 169 kts 345°
2026-04-26 12:10 42.57220 9.47585 717 ft 162 kts 344°
2026-04-26 12:10 42.57932 9.47297 1137 ft 161 kts 343°
2026-04-26 12:10 42.59361 9.46705 1886 ft 164 kts 341°
2026-04-26 12:11 42.60104 9.46386 2117 ft 174 kts 341°
2026-04-26 12:11 42.61731 9.45686 2571 ft 196 kts 341°
2026-04-26 12:11 42.63116 9.45092 2851 ft 219 kts 338°
2026-04-26 12:11 42.64523 9.44141 3233 ft 237 kts 323°
2026-04-26 12:12 42.65780 9.42586 3700 ft 254 kts 309°
2026-04-26 12:12 42.66549 9.41318 4091 ft 263 kts 309°
2026-04-26 12:12 42.68280 9.38956 5157 ft 269 kts 316°
2026-04-26 12:12 42.69197 9.37800 5726 ft 271 kts 317°
2026-04-26 12:13 42.71057 9.35527 6838 ft 274 kts 319°
2026-04-26 12:13 42.72565 9.33927 7661 ft 278 kts 325°
2026-04-26 12:13 42.74184 9.32525 8441 ft 281 kts 329°
2026-04-26 12:13 42.75892 9.31173 9255 ft 285 kts 330°
2026-04-26 12:14 42.77021 9.30289 9777 ft 287 kts 330°
2026-04-26 12:14 42.79348 9.28471 10698 ft 296 kts 330°
2026-04-26 12:14 42.81186 9.27031 11085 ft 313 kts 330°
2026-04-26 12:14 42.83114 9.25516 11495 ft 329 kts 330°
2026-04-26 12:15 42.85114 9.23938 12145 ft 335 kts 330°
2026-04-26 12:15 42.86431 9.22898 12635 ft 336 kts 330°
2026-04-26 12:15 42.88470 9.21288 13392 ft 339 kts 330°
2026-04-26 12:15 42.91179 9.19147 14333 ft 343 kts 331°
2026-04-26 12:16 42.93259 9.17504 14985 ft 346 kts 330°
2026-04-26 12:16 42.95348 9.15852 15656 ft 349 kts 330°
2026-04-26 12:16 42.97438 9.14197 16320 ft 352 kts 330°
2026-04-26 12:16 42.99570 9.12506 16948 ft 355 kts 330°
2026-04-26 12:17 43.01707 9.10810 17574 ft 358 kts 330°
2026-04-26 12:17 43.03881 9.09084 18186 ft 362 kts 330°
2026-04-26 12:17 43.05333 9.07930 18570 ft 364 kts 330°
2026-04-26 12:17 43.08257 9.05602 19349 ft 369 kts 330°
2026-04-26 12:18 43.10459 9.03847 19948 ft 372 kts 329°
2026-04-26 12:18 43.12730 9.02037 20531 ft 375 kts 329°
2026-04-26 12:18 43.14265 9.00811 20918 ft 377 kts 329°
2026-04-26 12:18 43.17337 8.98356 21688 ft 380 kts 329°
2026-04-26 12:19 43.19685 8.96474 22270 ft 382 kts 328°
2026-04-26 12:19 43.21800 8.94188 22773 ft 385 kts 313°
2026-04-26 12:19 43.23422 8.91120 23316 ft 388 kts 298°
2026-04-26 12:19 43.24459 8.87677 23850 ft 390 kts 290°
2026-04-26 12:20 43.25387 8.84031 24342 ft 393 kts 289°
2026-04-26 12:20 43.25996 8.81604 24642 ft 396 kts 289°
2026-04-26 12:20 43.27214 8.76788 25275 ft 399 kts 290°
2026-04-26 12:20 43.28145 8.73141 25888 ft 397 kts 290°
2026-04-26 12:21 43.28780 8.70663 26333 ft 395 kts 290°
2026-04-26 12:21 43.30025 8.65811 27162 ft 392 kts 290°
2026-04-26 12:21 43.30938 8.62251 27731 ft 391 kts 290°
2026-04-26 12:21 43.31855 8.58678 28281 ft 390 kts 290°
2026-04-26 12:22 43.32758 8.55157 28787 ft 389 kts 290°
2026-04-26 12:22 43.33669 8.51603 29222 ft 390 kts 290°
2026-04-26 12:22 43.34272 8.49244 29490 ft 392 kts 290°
2026-04-26 12:22 43.35498 8.44444 30008 ft 394 kts 290°
2026-04-26 12:23 43.36443 8.40734 30112 ft 397 kts 290°
2026-04-26 12:23 43.38327 8.33321 30118 ft 397 kts 289°
2026-04-26 12:24 43.40266 8.25672 30116 ft 398 kts 289°
2026-04-26 12:24 43.42184 8.18075 30112 ft 398 kts 289°
2026-04-26 12:25 43.45109 8.06439 30111 ft 397 kts 289°
2026-04-26 12:25 43.47010 7.98851 30116 ft 397 kts 289°
2026-04-26 12:26 43.48896 7.91296 30112 ft 396 kts 289°
2026-04-26 12:26 43.50431 7.85131 30111 ft 396 kts 289°
2026-04-26 12:27 43.52565 7.76529 30111 ft 396 kts 289°
2026-04-26 12:27 43.54343 7.69329 30112 ft 396 kts 289°
2026-04-26 12:28 43.56110 7.62158 30120 ft 395 kts 289°
2026-04-26 12:28 43.57865 7.55012 30112 ft 394 kts 289°
2026-04-26 12:29 43.59331 7.49023 30113 ft 394 kts 289°
2026-04-26 12:30 43.62522 7.38675 30113 ft 395 kts 305°
2026-04-26 12:30 43.64952 7.34900 30115 ft 395 kts 317°
2026-04-26 12:30 43.66393 7.33316 30123 ft 396 kts 323°
2026-04-26 12:31 43.74002 7.26335 30121 ft 395 kts 324°
2026-04-26 12:31 43.78592 7.22145 30119 ft 395 kts 324°
2026-04-26 12:32 43.82400 7.18653 30127 ft 395 kts 324°
2026-04-26 12:33 43.89248 7.12348 30137 ft 394 kts 324°
2026-04-26 12:33 43.93814 7.08134 30148 ft 394 kts 324°
2026-04-26 12:34 43.98358 7.03930 30153 ft 394 kts 324°
2026-04-26 12:34 44.02790 6.99824 30158 ft 393 kts 324°
2026-04-26 12:35 44.07361 6.95579 30173 ft 394 kts 324°
2026-04-26 12:35 44.11988 6.91492 30177 ft 397 kts 330°
2026-04-26 12:36 44.18098 6.88555 30182 ft 399 kts 347°
2026-04-26 12:36 44.22664 6.87738 30183 ft 399 kts 351°
2026-04-26 12:37 44.29128 6.86797 30190 ft 399 kts 352°
2026-04-26 12:37 44.33712 6.86115 30192 ft 399 kts 351°
2026-04-26 12:38 44.39279 6.85279 30200 ft 400 kts 351°
2026-04-26 12:38 44.44831 6.84440 30207 ft 400 kts 351°
2026-04-26 12:39 44.50326 6.83605 30219 ft 400 kts 351°
2026-04-26 12:39 44.55867 6.82760 30216 ft 399 kts 351°
2026-04-26 12:40 44.62267 6.81782 30207 ft 399 kts 351°
2026-04-26 12:40 44.66852 6.81081 30216 ft 399 kts 352°
2026-04-26 12:41 44.72379 6.80237 30227 ft 399 kts 351°
2026-04-26 12:41 44.77861 6.79395 30232 ft 398 kts 351°
2026-04-26 12:42 44.83401 6.78817 30235 ft 398 kts 355°
2026-04-26 12:42 44.88946 6.78463 30234 ft 398 kts 355°
2026-04-26 12:43 44.95475 6.78044 30239 ft 399 kts 355°
2026-04-26 12:43 44.99967 6.77747 30243 ft 399 kts 355°
2026-04-26 12:44 45.05556 6.77376 30243 ft 399 kts 355°
2026-04-26 12:44 45.11107 6.77009 30245 ft 399 kts 355°
2026-04-26 12:45 45.16675 6.76640 30245 ft 399 kts 355°
2026-04-26 12:45 45.22221 6.76273 30242 ft 399 kts 355°
2026-04-26 12:46 45.27780 6.75902 30243 ft 398 kts 355°
2026-04-26 12:46 45.33296 6.75364 30242 ft 397 kts 351°
2026-04-26 12:47 45.38724 6.74057 30245 ft 398 kts 347°
2026-04-26 12:47 45.44168 6.72558 30244 ft 398 kts 347°
2026-04-26 12:48 45.49588 6.71076 30243 ft 397 kts 347°
2026-04-26 12:48 45.52274 6.70344 30056 ft 393 kts 347°
2026-04-26 12:48 45.54961 6.69630 29539 ft 392 kts 347°
2026-04-26 12:48 45.57655 6.68935 28998 ft 391 kts 348°
2026-04-26 12:49 45.60296 6.68257 28514 ft 388 kts 348°
2026-04-26 12:49 45.62941 6.67575 27950 ft 388 kts 348°
2026-04-26 12:49 45.65593 6.66890 27318 ft 389 kts 348°
2026-04-26 12:49 45.69160 6.65965 26449 ft 391 kts 348°
2026-04-26 12:50 45.71820 6.65274 25811 ft 392 kts 348°
2026-04-26 12:50 45.73620 6.64805 25383 ft 392 kts 348°
2026-04-26 12:50 45.76273 6.64106 24748 ft 393 kts 348°
2026-04-26 12:50 45.78956 6.63380 24084 ft 394 kts 348°
2026-04-26 12:51 45.81663 6.62644 23423 ft 395 kts 348°
2026-04-26 12:51 45.84329 6.61921 22931 ft 392 kts 348°
2026-04-26 12:51 45.86998 6.61197 22444 ft 388 kts 348°
2026-04-26 12:51 45.89623 6.60484 21939 ft 385 kts 348°
2026-04-26 12:52 45.92262 6.59767 21416 ft 382 kts 348°
2026-04-26 12:52 45.94830 6.59070 20907 ft 379 kts 348°
2026-04-26 12:52 45.97420 6.58366 20396 ft 376 kts 348°
2026-04-26 12:52 45.99950 6.57677 19905 ft 373 kts 348°
2026-04-26 12:53 46.02502 6.56957 19411 ft 370 kts 345°
2026-04-26 12:53 46.04836 6.55543 18863 ft 366 kts 326°
2026-04-26 12:53 46.06703 6.53093 18340 ft 362 kts 308°
2026-04-26 12:53 46.08574 6.49193 17694 ft 358 kts 303°
2026-04-26 12:54 46.09495 6.47198 17366 ft 357 kts 304°
2026-04-26 12:54 46.10873 6.44231 16863 ft 354 kts 304°
2026-04-26 12:54 46.12234 6.41318 16373 ft 352 kts 304°
2026-04-26 12:54 46.13602 6.38405 15871 ft 351 kts 305°
2026-04-26 12:55 46.14966 6.35505 15360 ft 349 kts 305°
2026-04-26 12:55 46.16301 6.32668 15117 ft 340 kts 304°
2026-04-26 12:55 46.17593 6.29901 14924 ft 329 kts 302°
2026-04-26 12:55 46.18459 6.25843 14614 ft 318 kts 266°
2026-04-26 12:56 46.18177 6.23771 14459 ft 313 kts 249°
2026-04-26 12:56 46.17044 6.21159 14102 ft 311 kts 226°
2026-04-26 12:56 46.15512 6.18978 13694 ft 310 kts 224°
2026-04-26 12:56 46.13967 6.16793 13266 ft 309 kts 225°
2026-04-26 12:57 46.12471 6.14633 12871 ft 308 kts 225°
2026-04-26 12:57 46.10976 6.12440 12486 ft 307 kts 226°
2026-04-26 12:57 46.09512 6.10281 12188 ft 302 kts 226°
2026-04-26 12:58 46.06018 6.05221 12153 ft 305 kts 225°
2026-04-26 12:58 46.05008 6.03768 12153 ft 306 kts 225°
2026-04-26 12:58 46.03508 6.01608 12151 ft 306 kts 225°
2026-04-26 12:58 46.02007 5.99449 12143 ft 307 kts 225°
2026-04-26 12:59 46.00505 5.97287 12145 ft 305 kts 225°
2026-04-26 12:59 45.99022 5.95165 11864 ft 301 kts 225°
2026-04-26 12:59 45.97539 5.93049 11298 ft 301 kts 225°
2026-04-26 12:59 45.95564 5.90227 10567 ft 300 kts 225°
2026-04-26 13:00 45.94588 5.88831 10208 ft 298 kts 225°
2026-04-26 13:00 45.93137 5.86751 9689 ft 296 kts 225°
2026-04-26 13:00 45.91693 5.84675 9173 ft 293 kts 225°
2026-04-26 13:00 45.90262 5.82622 8661 ft 291 kts 225°
2026-04-26 13:01 45.88820 5.80562 8112 ft 289 kts 225°
2026-04-26 13:01 45.87415 5.78561 7577 ft 287 kts 225°
2026-04-26 13:01 45.86010 5.76571 7226 ft 284 kts 225°
2026-04-26 13:01 45.84598 5.74578 7143 ft 285 kts 225°
2026-04-26 13:02 45.83188 5.72597 7141 ft 286 kts 225°
2026-04-26 13:02 45.81755 5.70583 7142 ft 287 kts 225°
2026-04-26 13:02 45.80338 5.68588 7128 ft 287 kts 225°
2026-04-26 13:02 45.78904 5.66571 7129 ft 286 kts 225°
2026-04-26 13:03 45.77531 5.64565 7126 ft 281 kts 232°
2026-04-26 13:03 45.76774 5.62145 7108 ft 259 kts 268°
2026-04-26 13:03 45.77034 5.59712 7125 ft 247 kts 295°
2026-04-26 13:03 45.78382 5.57102 7147 ft 243 kts 325°
2026-04-26 13:04 45.79317 5.56275 7150 ft 241 kts 339°
2026-04-26 13:04 45.80946 5.55718 7159 ft 238 kts
2026-04-26 13:04 45.82547 5.56076 7160 ft 237 kts 22°
2026-04-26 13:04 45.83962 5.57294 7174 ft 236 kts 40°
2026-04-26 13:05 45.85199 5.58843 7160 ft 236 kts 41°
2026-04-26 13:05 45.86825 5.60917 6998 ft 232 kts 41°
2026-04-26 13:05 45.87690 5.62013 6747 ft 233 kts 41°
2026-04-26 13:05 45.89403 5.64164 6307 ft 232 kts 41°
2026-04-26 13:06 45.90239 5.65210 6114 ft 230 kts 41°
2026-04-26 13:06 45.91523 5.66813 6002 ft 228 kts 41°
2026-04-26 13:06 45.92829 5.68217 5998 ft 229 kts 30°
2026-04-26 13:06 45.94314 5.69318 6001 ft 229 kts 26°
2026-04-26 13:07 45.95767 5.70485 6000 ft 230 kts 35°
2026-04-26 13:07 45.97040 5.71940 6005 ft 230 kts 41°
2026-04-26 13:07 45.98233 5.73471 6006 ft 229 kts 42°
2026-04-26 13:07 45.99356 5.74982 5996 ft 215 kts 43°
2026-04-26 13:08 46.00402 5.76437 5991 ft 208 kts 44°
2026-04-26 13:08 46.01427 5.77900 5994 ft 208 kts 44°
2026-04-26 13:08 46.02449 5.79382 5994 ft 208 kts 45°
2026-04-26 13:08 46.03460 5.80867 5990 ft 208 kts 45°
2026-04-26 13:09 46.04466 5.82354 5993 ft 208 kts 45°
2026-04-26 13:09 46.05479 5.83856 5984 ft 208 kts 45°
2026-04-26 13:09 46.06482 5.85349 5808 ft 208 kts 45°
2026-04-26 13:09 46.07477 5.86827 5528 ft 206 kts 45°
2026-04-26 13:10 46.08476 5.88310 5254 ft 204 kts 45°
2026-04-26 13:10 46.09451 5.89756 4989 ft 201 kts 45°
2026-04-26 13:10 46.10426 5.91199 4725 ft 199 kts 45°
2026-04-26 13:10 46.11382 5.92613 4458 ft 196 kts 45°
2026-04-26 13:11 46.12329 5.94011 4206 ft 194 kts 44°
2026-04-26 13:11 46.13236 5.95350 4046 ft 184 kts 44°
2026-04-26 13:11 46.14130 5.96668 3773 ft 180 kts 44°
2026-04-26 13:11 46.15278 5.98358 3434 ft 174 kts 44°
2026-04-26 13:12 46.15830 5.99171 3271 ft 170 kts 44°
2026-04-26 13:12 46.16642 6.00366 3038 ft 163 kts 44°
2026-04-26 13:12 46.17406 6.01490 2837 ft 150 kts 45°
2026-04-26 13:12 46.18108 6.02523 2648 ft 144 kts 44°
2026-04-26 13:13 46.18807 6.03546 2475 ft 144 kts 44°
2026-04-26 13:13 46.19514 6.04586 2310 ft 144 kts 45°
2026-04-26 13:13 46.20197 6.05617 2118 ft 143 kts 45°
2026-04-26 13:13 46.21143 6.06975 1866 ft 143 kts 44°
2026-04-26 13:14 46.21596 6.07646 1759 ft 143 kts 45°
2026-04-26 13:14 46.22303 6.08674 1565 ft 142 kts 47°
2026-04-26 13:14 46.22986 6.09685 1412 ft 141 kts 46°
2026-04-26 13:14 46.23624 6.10625 1380 ft 115 kts 47°
2026-04-26 13:15 46.24060 6.11268 1374 ft 65 kts 45°
2026-04-26 13:15 46.24279 6.11629 1370 ft 26 kts 60°
2026-04-26 13:15 46.24336 6.11860 1369 ft 19 kts 78°
2026-04-26 13:15 46.24320 6.11959 1369 ft 7 kts 174°
2026-04-26 13:16 46.24283 6.11927 1369 ft 6 kts 227°
2026-04-26 13:16 46.24247 6.11873 1369 ft 8 kts 226°
2026-04-26 13:16 46.24205 6.11811 1369 ft 9 kts 225°
2026-04-26 13:16 46.24156 6.11741 1370 ft 10 kts 224°
2026-04-26 13:17 46.24070 6.11616 1374 ft 6 kts 225°
2026-04-26 13:17 46.24034 6.11563 1374 ft 9 kts 225°
2026-04-26 13:18 46.23921 6.11395 1377 ft 10 kts 225°
2026-04-26 13:18 46.23861 6.11307 1375 ft 12 kts 225°
2026-04-26 13:18 46.23739 6.11130 1378 ft 12 kts 225°
2026-04-26 13:19 46.23678 6.11042 1379 ft 12 kts 225°
2026-04-26 13:19 46.23622 6.10957 1381 ft 11 kts 226°
2026-04-26 13:19 46.23569 6.10877 1382 ft 11 kts 226°
2026-04-26 13:19 46.23511 6.10795 1382 ft 11 kts 224°
2026-04-26 13:20 46.23436 6.10687 1384 ft 11 kts 224°
2026-04-26 13:20 46.23397 6.10634 1384 ft 11 kts 223°
2026-04-26 13:20 46.23340 6.10553 1385 ft 11 kts 226°
2026-04-26 13:20 46.23278 6.10531 1387 ft 9 kts 146°
2026-04-26 13:21 46.23233 6.10589 1389 ft 8 kts 135°
2026-04-26 13:21 46.23198 6.10642 1391 ft 6 kts 136°
2026-04-26 13:21 46.23161 6.10643 1392 ft 6 kts 211°
2026-04-26 13:21 46.23112 6.10579 1391 ft 8 kts 225°
2026-04-26 13:22 46.23093 6.10564 1392 ft 4 kts 172°
2026-04-26 13:22 46.23069 6.10590 1392 ft 3 kts 136°
2026-04-26 13:22 46.23055 6.10611 1393 ft 2 kts 135°
2026-04-26 13:22 46.23054 6.10613 1393 ft 0 kts 135°
2026-04-26 13:23 46.23053 6.10613 1393 ft 0 kts 135°
2026-04-26 13:28 46.23054 6.10613 1393 ft 0 kts 135°